W0ANA Weather Reports


time (UTC)temp
C
wind
direction
speed
KPH
gust
KPH
rain 1hr
cm
rain 24hr
cm
rain mn
cm
humidity
%
barometer
mb
20240518043053 19 188 0.0 9.7 0.00 0.30 0.30 78 1000.7
20240518041552 20 79 0.0 14.5 0.00 0.30 0.30 71 1000.8
20240518040052 20 72 0.0 9.7 0.00 0.30 0.30 70 1000.9
20240518034555 19 202 0.0 6.4 0.00 0.30 0.30 72 1001.1
20240518033056 19 176 0.0 14.5 0.00 0.30 0.30 74 1001.0
20240518031548 19 194 0.0 14.5 0.00 0.30 0.30 75 1001.1
20240518030045 19 188 0.0 12.9 0.00 0.30 0.30 76 1001.2
20240518023046 18 212 3.2 14.5 0.00 0.30 0.30 77 1001.3
20240518021545 19 174 4.8 19.3 0.00 0.30 0.30 78 1001.3
20240518020010 20 162 3.2 20.9 0.00 0.30 0.30 74 1000.9
20240518014510 19 203 3.2 16.1 0.03 0.30 0.30 75 1000.9
20240518013011 19 161 0.0 11.3 0.03 0.30 0.30 77 1000.9
20240518011515 19 194 3.2 19.3 0.08 0.30 0.30 78 1001.8
20240518010047 18 197 8.0 22.5 0.23 0.30 0.30 77 1001.9
20240518004551 18 174 3.2 16.1 0.23 0.28 0.28 78 1000.1
20240518003054 19 250 1.6 12.9 0.23 0.28 0.28 80 1002.1
20240518001547 20 179 0.0 4.8 0.18 0.23 0.23 75 1002.2
20240518000019 22 200 0.0 17.7 0.03 0.08 0.08 60 1002.2
20240517234519 25 229 0.0 6.4 0.00 0.05 0.05 49 1000.7
20240517233020 27 203 0.0 8.0 0.00 0.05 0.05 40 1000.3
20240517231534 27 205 1.6 9.7 0.00 0.05 0.05 37 999.6
20240517230015 28 193 8.0 16.1 0.00 0.05 0.05 35 999.7
20240517224513 28 188 4.8 12.9 0.00 0.05 0.05 35 999.3
20240517223021 28 226 1.6 16.1 0.00 0.05 0.05 37 999.5
20240517221515 29 156 3.2 16.1 0.00 0.05 0.05 37 999.7
20240517220010 28 176 0.0 12.9 0.00 0.05 0.05 40 999.7
20240517214506 29 191 11.3 20.9 0.00 0.05 0.05 38 1000.0
20240517213003 29 158 0.0 12.9 0.00 0.05 0.05 38 1000.1
20240517211501 29 272 6.4 14.5 0.00 0.05 0.05 36 1000.2
20240517210054 29 201 1.6 14.5 0.00 0.05 0.05 39 1000.3
20240517204553 28 257 3.2 16.1 0.00 0.05 0.05 38 1000.3
20240517204511 28 117 3.2 16.1 0.00 0.05 0.05 38 1000.3
20240517203058 28 238 1.6 11.3 0.00 0.05 0.05 39 1000.5
20240517201600 28 132 3.2 16.1 0.00 0.05 0.05 39 1000.6
20240517200056 28 220 6.4 20.9 0.00 0.05 0.05 38 1000.8